This demonstration page uses our WeatherBlox Daily Observations layout. Learn more.

Left ArrowRight Arrow

Hourly Observations for October 4, 2020

Temp ( °F °C ) Dew Point ( °F °C ) Humidity (%) Winds ( mph kmh ) Pressure ( in mb ) Visibility ( mi km ) Precip ( " mm )
12:53 am 00:53 Clear 70 21.1 48 8.9 46 46 NE 16 26 30.00 1016 10 16 0.00 0.00
1:53 am 01:53 Clear 68 20 48 8.9 49 49 ENE 15 24 30.01 1016 10 16 0.00 0.00
2:53 am 02:53 Clear 65 18.3 46 7.8 51 51 ENE 14 22 30.01 1016 10 16 0.00 0.00
3:53 am 03:53 Clear 64 17.8 43 6.1 46 46 NE 15 24 30.03 1017 10 16 0.00 0.00
4:53 am 04:53 Clear 62 16.7 41 5 46 46 NE 14 22 30.05 1018 10 16 0.00 0.00
5:53 am 05:53 Clear 59 15 40 4.4 49 49 N 9 15 30.07 1018 10 16 0.00 0.00
6:53 am 06:53 Clear 59 15 39 3.9 48 48 NNE 7 11 30.10 1019 10 16 0.00 0.00
7:53 am 07:53 Sunny 55 12.8 38 3.3 53 53 N 5 7 30.14 1021 10 16 0.00 0.00
8:53 am 08:53 Sunny 61 16.1 40 4.4 46 46 ENE 10 17 30.15 1021 10 16 0.00 0.00
9:53 am 09:53 Sunny 65 18.3 42 5.6 43 43 E 8 13 30.16 1022 10 16 0.00 0.00
10:53 am 10:53 Sunny 69 20.6 45 7.2 42 42 SE 9 15 30.17 1022 10 16 0.00 0.00
11:53 am 11:53 Sunny 72 22.2 49 9.4 44 44 ESE 6 9 30.17 1022 10 16 0.00 0.00
12:53 pm 12:53 Sunny 75 23.9 50 10 41 41 VRB 3 6 30.15 1021 10 16 0.00 0.00
1:53 pm 13:53 Sunny 76 24.4 50 10 40 40 Calm 30.13 1020 10 16 0.00 0.00
2:53 pm 14:53 Sunny 80 26.7 51 10.6 37 37 VRB 3 6 30.09 1019 10 16 0.00 0.00
3:53 pm 15:53 Sunny 82 27.8 50 10 33 33 SE 6 9 30.06 1018 10 16 0.00 0.00
4:53 pm 16:53 Sunny 83 28.3 49 9.4 31 31 E 7 11 30.05 1018 10 16 0.00 0.00
5:53 pm 17:53 Sunny 83 28.3 48 8.9 30 30 VRB 3 6 30.04 1017 10 16 0.00 0.00
6:53 pm 18:53 Sunny 82 27.8 45 7.2 27 27 SSE 9 15 30.04 1017 10 16 0.00 0.00
7:53 pm 19:53 Clear 76 24.4 46 7.8 35 35 SSE 6 9 30.05 1018 10 16 0.00 0.00
8:53 pm 20:53 Clear 73 22.8 46 7.8 38 38 SE 5 7 30.06 1018 10 16 0.00 0.00
9:53 pm 21:53 Clear 70 21.1 46 7.8 42 42 SE 8 13 30.06 1018 10 16 0.00 0.00
10:53 pm 22:53 Clear 69 20.6 48 8.9 47 47 SE 8 13 30.05 1018 10 16 0.00 0.00
11:53 pm 23:53 Clear 67 19.4 48 8.9 51 51 SE 8 13 30.05 1018 10 16 0.00 0.00

Powered by AerisWeather